This is the latest recevied weather packets stored in our database for station/object KE8KMM. If no packets are shown the sender has not sent any weather packets the latest 10 day(s).
| Time | Temp. | Humidity | Pressure | Rain* | Wind** | Luminosity | Snow |
|---|---|---|---|---|---|---|---|
| 1777232720 | 15.56° C | 75% | 1017.6 hPa | 0 mm | - | 427 W/m² | - |
| 1777232418 | 15° C | 75% | 1017.6 hPa | 0 mm | - | 594 W/m² | - |
| 1777232115 | 15° C | 75% | 1017.6 hPa | 0 mm | - | 423 W/m² | - |
| 1777231812 | 15° C | 74% | 1017.7 hPa | 0 mm | - | 333 W/m² | - |
| 1777231509 | 15.56° C | 75% | 1017.6 hPa | 0 mm | - | 336 W/m² | - |
| 1777231205 | 15° C | 74% | 1017.7 hPa | 0 mm | - | 512 W/m² | - |
| 1777230901 | 14.44° C | 77% | 1017.8 hPa | 0 mm | - | 323 W/m² | - |
| 1777230596 | 14.44° C | 76% | 1017.7 hPa | 0 mm | - | 310 W/m² | - |
| 1777230292 | 14.44° C | 75% | 1017.8 hPa | 0 mm | - | 327 W/m² | - |
| 1777229990 | 14.44° C | 76% | 1017.9 hPa | 0 mm | - | 269 W/m² | - |
| 1777229685 | 13.89° C | 77% | 1017.9 hPa | 0 mm | - | 292 W/m² | - |
| 1777229383 | 13.33° C | 79% | 1017.9 hPa | 0 mm | - | 269 W/m² | - |
| 1777229080 | 13.89° C | 79% | 1018.1 hPa | 0 mm | - | 278 W/m² | - |
| 1777228777 | 13.89° C | 79% | 1018.3 hPa | 0 mm | - | 295 W/m² | - |
| 1777228472 | 13.89° C | 79% | 1018 hPa | 0 mm | - | 277 W/m² | - |
| 1777228168 | 13.89° C | 77% | 1018.1 hPa | 0 mm | - | 262 W/m² | - |
| 1777227866 | 13.89° C | 77% | 1018.1 hPa | 0 mm | - | 276 W/m² | - |
| 1777227558 | 13.89° C | 78% | 1018 hPa | 0 mm | - | 298 W/m² | - |
| 1777227253 | 13.33° C | 79% | 1018.2 hPa | 0 mm | - | 299 W/m² | - |
| 1777226951 | 13.33° C | 77% | 1018.4 hPa | 0 mm | - | 248 W/m² | - |
| 1777226649 | 13.89° C | 80% | 1018.6 hPa | 0 mm | - | 235 W/m² | - |
| 1777226345 | 13.33° C | 79% | 1018.3 hPa | 0 mm | - | 257 W/m² | - |
| 1777226041 | 13.33° C | 77% | 1018.3 hPa | 0 mm | - | 296 W/m² | - |
| 1777225736 | 13.33° C | 80% | 1018.3 hPa | 0 mm | - | 306 W/m² | - |
| 1777225434 | 13.33° C | 78% | 1018.5 hPa | 0 mm | - | 327 W/m² | - |
* Rain latest hour (hover to see other rain measurements)
** Current wind speed in m/s (hover to see current wind gust speed)